Cape Cod CGAS, MA

12:58 PM EDT on June 23, 2017 (GMT -0400)
Cape Cod Coast Guard Air Station

Weather History for KFMH - February, 2014

Change the Weather History Date:

Thursday, February 13, 2014

  Actual Average Record
Temperature  
Mean Temperature 33 °F -  
Max Temperature 45 °F 36 °F 53 °F (1999)
Min Temperature 21 °F 20 °F -2 °F (2003)
Degree Days  
Heating Degree Days 32    
Moisture  
Dew Point 33 °F    
Average Humidity 92    
Maximum Humidity 100    
Minimum Humidity 66    
Precipitation  
Precipitation 0.59 in - - ()
Sea Level Pressure  
Sea Level Pressure 29.75 in    
Wind  
Wind Speed 11 mph (NE)    
Max Wind Speed 25 mph    
Max Gust Speed 38 mph    
Visibility 5 miles    
Events Fog , Rain , Snow , Thunderstorm    
Averages and records for this station are not official NWS values.
T = Trace of Precipitation, MM = Missing Value Source: NWS Daily Summary

Daily Weather History Graph

Daily Weather History Graph

Search for Another Location

Airport or City:

Trip Planner

Search our weather history database for the weather conditions in past years. The results will help you decide how hot, cold, wet, or windy it might be!

Date:

Astronomy

Feb. 13, 2014 Rise Set
Actual Time 6:40 AM EST 5:13 PM EST
Civil Twilight 6:11 AM EST 5:41 PM EST
Nautical Twilight 5:38 AM EST 6:14 PM EST
Astronomical Twilight 5:06 AM EST 6:46 PM EST
Moon 4:18 PM EST (2/13) 5:31 AM EST (2/13)
Length of Visible Light 11h 30m
Length of Day
10h 32m
Waxing Gibbous, 98% of the Moon is Illuminated
Feb 13
Waxing Gibbous
Feb 14
Full
Feb 22
Last Quarter
Mar 1
New
Mar 8
First Quarter

Hourly Weather History & Observations

Time (EST) Temp. Windchill Dew Point Humidity Pressure Visibility Wind Dir Wind Speed Gust Speed Precip Events Conditions
12:15 AM 23.0 °F 17.0 °F 17.6 °F 80% 30.40 in 10.0 mi NE 4.6 mph - N/A   Overcast
12:35 AM 21.2 °F 11.7 °F 17.6 °F 86% 30.38 in 10.0 mi NE 8.1 mph - N/A   Overcast
12:55 AM 21.2 °F 11.7 °F 17.6 °F 86% 30.36 in 10.0 mi ENE 8.1 mph - N/A   Overcast
1:15 AM 21.2 °F 12.6 °F 17.6 °F 86% 30.35 in 10.0 mi ENE 6.9 mph - N/A   Overcast
1:35 AM 23.0 °F 13.1 °F 17.6 °F 80% 30.35 in 10.0 mi NE 9.2 mph - N/A   Overcast
1:55 AM 23.0 °F 15.8 °F 19.4 °F 86% 30.33 in 10.0 mi ENE 5.8 mph - N/A   Mostly Cloudy
2:35 AM 24.8 °F 16.9 °F 21.2 °F 86% 30.32 in 10.0 mi ENE 6.9 mph - N/A   Overcast
2:55 AM 24.8 °F 16.1 °F 21.2 °F 86% 30.31 in 10.0 mi ENE 8.1 mph - N/A   Overcast
3:15 AM 26.6 °F 19.1 °F 21.2 °F 80% 30.31 in 10.0 mi ENE 6.9 mph - N/A   Overcast
3:35 AM 26.6 °F 21.2 °F 23.0 °F 86% 30.31 in 10.0 mi ENE 4.6 mph - N/A   Overcast
3:55 AM 26.6 °F 19.1 °F 23.0 °F 86% 30.30 in 10.0 mi ENE 6.9 mph - N/A   Overcast
4:15 AM 26.6 °F 18.2 °F 23.0 °F 86% 30.29 in 10.0 mi ENE 8.1 mph - N/A   Overcast
4:35 AM 28.4 °F 20.4 °F 23.0 °F 80% 30.28 in 10.0 mi ENE 8.1 mph - N/A   Mostly Cloudy
4:55 AM 28.4 °F 21.2 °F 24.8 °F 86% 30.27 in 10.0 mi ENE 6.9 mph - N/A   Overcast
5:15 AM 28.4 °F 19.7 °F 24.8 °F 86% 30.26 in 10.0 mi ENE 9.2 mph - N/A   Overcast
5:35 AM 28.4 °F 20.4 °F 24.8 °F 86% 30.25 in 8.0 mi ENE 8.1 mph - N/A   Mostly Cloudy
5:55 AM 28.4 °F 19.7 °F 24.8 °F 86% 30.24 in 10.0 mi NE 9.2 mph - N/A   Mostly Cloudy
6:15 AM 28.4 °F 19.7 °F 26.6 °F 93% 30.22 in 10.0 mi NE 9.2 mph - N/A   Overcast
6:35 AM 30.2 °F 21.3 °F 26.6 °F 86% 30.21 in 10.0 mi NE 10.4 mph - N/A   Overcast
6:55 AM 30.2 °F 21.9 °F 26.6 °F 86% 30.20 in 10.0 mi ENE 9.2 mph - N/A   Overcast
7:15 AM 32.0 °F 24.2 °F 28.4 °F 87% 30.19 in 10.0 mi ENE 9.2 mph - N/A   Overcast
7:35 AM 32.0 °F 23.0 °F 30.2 °F 93% 30.18 in 4.0 mi East 11.5 mph - N/A Snow Light Snow
7:55 AM 33.8 °F 24.8 °F 32.0 °F 93% 30.17 in 2.0 mi East 12.7 mph 19.6 mph N/A Snow Light Snow
8:15 AM 33.8 °F 24.3 °F 32.0 °F 93% 30.15 in 3.0 mi East 13.8 mph 21.9 mph N/A Snow Light Snow
8:35 AM 33.8 °F 23.9 °F 32.0 °F 93% 30.13 in 5.0 mi East 15.0 mph 25.3 mph N/A Snow Light Snow
8:55 AM 33.8 °F 23.5 °F 32.0 °F 93% 30.11 in 4.0 mi East 16.1 mph 23.0 mph N/A Snow Light Snow
9:15 AM 35.6 °F 25.9 °F 33.8 °F 93% 30.09 in 4.0 mi East 16.1 mph 25.3 mph N/A Snow Light Snow
9:35 AM 35.6 °F 27.1 °F 33.8 °F 93% 30.06 in 2.5 mi East 12.7 mph 23.0 mph N/A Snow Light Snow
9:55 AM 35.6 °F 26.6 °F 33.8 °F 93% 30.05 in 3.0 mi ENE 13.8 mph 26.5 mph N/A Snow Light Snow
10:15 AM 35.6 °F 26.6 °F 33.8 °F 93% 30.02 in 3.0 mi East 13.8 mph 27.6 mph N/A Rain Light Rain
10:35 AM 37.4 °F 27.2 °F 35.6 °F 93% 29.99 in 3.0 mi ENE 19.6 mph 29.9 mph N/A Rain Light Rain
10:55 AM 37.4 °F 27.5 °F 35.6 °F 93% 29.96 in 4.0 mi East 18.4 mph 27.6 mph N/A Rain Light Rain
11:15 AM 37.4 °F 27.8 °F 35.6 °F 93% 29.93 in 3.0 mi East 17.3 mph 26.5 mph N/A Rain Light Rain
11:35 AM 37.4 °F 26.6 °F 35.6 °F 93% 29.88 in 3.0 mi ENE 21.9 mph 27.6 mph N/A Rain Light Rain
11:55 AM 37.4 °F 27.5 °F 35.6 °F 93% 29.84 in 2.5 mi ENE 18.4 mph 28.8 mph N/A Rain Light Rain
12:15 PM 37.4 °F 26.6 °F 35.6 °F 93% 29.81 in 2.0 mi ENE 21.9 mph 32.2 mph N/A Rain Light Rain
12:35 PM 37.4 °F 27.2 °F 37.4 °F 100% 29.77 in 2.0 mi ENE 19.6 mph 26.5 mph N/A Rain Light Rain
12:55 PM 37.4 °F 26.1 °F 37.4 °F 100% 29.72 in 1.8 mi ENE 24.2 mph 32.2 mph N/A Rain Light Rain
1:15 PM 39.2 °F 28.5 °F 37.4 °F 93% 29.68 in 1.5 mi ENE 24.2 mph 38.0 mph N/A Rain Light Rain
1:35 PM 39.2 °F 29.0 °F 37.4 °F 93% 29.66 in 1.2 mi NE 21.9 mph 27.6 mph N/A Rain Light Rain
1:55 PM 39.2 °F 28.3 °F 37.4 °F 93% 29.61 in 1.2 mi NE 25.3 mph 35.7 mph N/A Rain Light Rain
2:35 PM 39.2 °F 28.3 °F 37.4 °F 93% 29.52 in 1.5 mi NE 25.3 mph 31.1 mph N/A Rain Light Rain
2:55 PM 39.2 °F 29.0 °F 39.2 °F 100% 29.49 in 1.8 mi NE 21.9 mph 27.6 mph N/A Rain Light Rain
3:15 PM 41.0 °F 30.9 °F 39.2 °F 93% 29.47 in 5.0 mi NE 24.2 mph 29.9 mph N/A   Overcast
3:35 PM 41.0 °F 31.6 °F 41.0 °F 100% 29.43 in 5.0 mi ENE 20.7 mph 32.2 mph N/A   Overcast
3:55 PM 41.0 °F 33.1 °F 41.0 °F 100% 29.41 in 0.8 mi NE 15.0 mph 24.2 mph N/A Rain Light Rain
4:15 PM 41.0 °F 35.8 °F 41.0 °F 100% 29.39 in 1.2 mi North 8.1 mph 15.0 mph N/A Rain Rain
4:35 PM 41.0 °F 35.2 °F 41.0 °F 100% 29.37 in 1.2 mi NNE 9.2 mph - N/A Rain Rain
4:55 PM 41.0 °F 36.4 °F 41.0 °F 100% 29.35 in 1.5 mi NNW 6.9 mph 13.8 mph N/A Rain Rain
5:15 PM 41.0 °F 37.1 °F 39.2 °F 93% 29.33 in 1.0 mi Variable 5.8 mph 15.0 mph N/A Rain Heavy Rain
5:35 PM 41.0 °F 35.2 °F 39.2 °F 93% 29.32 in 1.8 mi North 9.2 mph 15.0 mph N/A Rain Light Rain
5:55 PM 41.0 °F 33.5 °F 39.2 °F 93% 29.29 in 1.8 mi North 13.8 mph - N/A   Overcast
6:15 PM 41.0 °F 34.3 °F 39.2 °F 93% 29.28 in 2.0 mi North 11.5 mph 17.3 mph N/A   Overcast
6:35 PM 41.0 °F 33.9 °F 39.2 °F 93% 29.25 in 2.5 mi North 12.7 mph - N/A   Overcast
6:55 PM 41.0 °F 34.3 °F 39.2 °F 93% 29.26 in 2.0 mi North 11.5 mph 17.3 mph N/A   Overcast
7:15 PM 41.0 °F 34.3 °F 39.2 °F 93% 29.25 in 2.0 mi North 11.5 mph 17.3 mph N/A   Overcast
7:35 PM 41.0 °F 33.9 °F 39.2 °F 93% 29.22 in 2.5 mi North 12.7 mph 20.7 mph N/A Rain Light Rain
7:55 PM 39.2 °F 31.2 °F 39.2 °F 100% 29.21 in 1.5 mi North 13.8 mph - N/A   Light Drizzle
8:15 PM 39.2 °F 31.6 °F 39.2 °F 100% 29.18 in 1.2 mi North 12.7 mph 23.0 mph N/A Rain Light Rain
8:35 PM 39.2 °F 31.6 °F 39.2 °F 100% 29.18 in 2.0 mi North 12.7 mph - N/A   Overcast
8:55 PM 39.2 °F 30.2 °F 37.4 °F 93% 29.16 in 2.0 mi North 17.3 mph 24.2 mph N/A   Light Drizzle
9:15 PM 39.2 °F 31.2 °F 37.4 °F 93% 29.13 in 2.5 mi North 13.8 mph - N/A   Overcast
9:35 PM 39.2 °F 30.5 °F 37.4 °F 93% 29.10 in 1.8 mi North 16.1 mph 23.0 mph N/A   Overcast
9:55 PM 39.2 °F 30.8 °F 37.4 °F 93% 29.08 in 1.2 mi NNE 15.0 mph 23.0 mph N/A   Overcast
10:15 PM 39.2 °F 31.2 °F 37.4 °F 93% 29.07 in 0.8 mi NNE 13.8 mph 23.0 mph N/A   Overcast
10:35 PM 37.4 °F 28.9 °F 37.4 °F 100% 29.04 in 0.8 mi North 13.8 mph 21.9 mph N/A Thunderstorm Overcast
10:55 PM 37.4 °F 27.8 °F 37.4 °F 100% 29.01 in 0.5 mi NNE 17.3 mph 23.0 mph N/A Rain , Thunderstorm Rain
11:15 PM 39.2 °F 30.2 °F 37.4 °F 93% 28.96 in 2.0 mi North 17.3 mph 27.6 mph N/A Rain Rain
11:35 PM 39.2 °F 30.5 °F 37.4 °F 93% 28.95 in 3.0 mi NNE 16.1 mph 23.0 mph N/A Rain Light Rain
11:55 PM 39.2 °F 32.5 °F 39.2 °F 100% 28.95 in 7.0 mi NNE 10.4 mph 20.7 mph N/A Thunderstorm Overcast